Probability
0 0 0 0 0 0 0 0 0 0 0 0 0 0 0 0 0 0 0 0 0 0 0 0 0 0 0 0 0 0 0 0 0 0 0 0 0 0 0 0 0 0 0 0
0 0 0 0 0 0 0 0 0 0 0 0 0 0 0 0 0 0 0 0 0 0 0 0 0 0 0 0 0 0 0 0 0 0 0 0 0 0 0 0 0 0 0 0
0 0 0 0 0 0 0 0 0 0 0 0 0 0 0 0 0 0 0 0 0 0 0 0 0 0 0 0 0 0 0 0 0 0 0 0 0 0 0 0 0 0 0 0
0 0 0 0 0 0 0 0 0 0 0 0 0 0 0 0 0 0 0 0 0 0 0 0 0 0 0 0 0 0 0 0 0 0 0 0 0 0 0 0 0 0 0 0
0 0 0 0 0 0 0 0 0 0 0 0 0 0 0 0 0 0 0 0 0 0 0 0 0 0 0 0 0 0 0 0 0 0 0 0 0 0 0 0 0 0 0 0
0 0 0 0 0 0 0 0 0 0 0 0 0 0 0 0 0 0 0 0 0 0 0 0 0 0 0 0 0 0 0 0 0 0 0 0 0 0 0 0 0 0 0 0
0 0 0 0 0 0 0 0 0 0 0 0 0 0 0 0 0 0 0 0 0 0 0 0 0 0 0 0 0 0 0 0 0 0 0 0 0 0 0 0 0 0 0 0
0 0 0 0 0 0 0 0 0 0 0 0 0 0 0 0 0 0 0 0 0 0 0 0 0 0 0 0 0 0 0 0 0 0 0 0 0 0 0 0 0 0 0 0
0 0 0 0 0 0 0 0 0 0 0 0 0 0 0 0 0 0 0 0 0 0 0 0 0 0 0 0 0 0 0 0 0 0 0 0 0 0 0 0 0 0 0 0
0 0 0 0 0 0 0 0 0 0 0 0 0 0 0 0 0 0 0 0 0 0 0 0 0 0 0 0 0 0 0 0 0 0 0 0 0 0 0 0 0 0 0 0
0 0 0 0 0 0 0 0 0 0 0 0 0 0 0 0 0 0 0 0 0 0 0 0 0 0 0 0 0 0 0 0 0 0 0 0 0 0 0 0 0 0 0 0
0 0 0 0 0 0 0 0 0 0 0 0 0 0 0 0 0 0 0 0 0 0 0 0 0 0 0 0 0 0 0 0 0 0 0 0 0 0 0 0 0 0 0 0
0 0 0 0 0 0 0 0 0 0 0 0 0 0 0 0 0 0 0 0 0 0 0 0 0 0 0 0 0 0 0 0 0 0 0 0 0 0 0 0 0 0 0 0
0 0 0 0 0 0 0 0 0 0 0 0 0 0 0 0 0 0 0 0 0 0 0 0 0 0 0 0 0 0 0 0 0 0 0 0 0 0 0 0 0 0 0 0
0 0 0 0 0 0 0 0 0 0 0 0 0 0 0 0 0 0 0 0 0 0 0 0 0 0 0 0 0 0 0 0 0 0 0 0 0 0 0 0 0 0 0 0
0 0 0 0 0 0 0 0 0 0 0 0 0 0 0 0 0 0 0 0 0 0 0 0 0 0 0 0 0 0 0 0 0 0 0 0 0 0 0 0 0 0 0 0
0 0 0 0 0 0 0 0 0 0 0 0 0 0 0 0 0 0 0 0 0 0 0 0 0 0 0 0 0 0 0 0 0 0 0 0 0 0 0 0 0 0 0 0
0 0 0 0 0 0 0 0 0 0 0 0 0 0 0 0 0 0 0 0 0 0 0 0 0 0 0 0 0 0 0 0 0 0 0 0 0 0 0 0 0 0 0 0
0 0 0 0 0 0 0 0 0 0 0 0 0 0 0 0 0 0 0 0 0 0 0 0 0 0 0 0 0 0 0 0 0 0 0 0 0 0 0 0 0 0 0 0
0 0 0 0 0 0 0 0 0 0 0 0 0 0 0 0 0 0 0 0 0 0 0 0 0 0 0 0 0 0 0 0 0 0 0 0 0 0 0 0 0 0 0 0
0 0 0 0 0 0 0 0 0 0 0 0 0 0 0 0 0 0 0 0 0 0 0 0 0 0 0 0 0 0 0 0 0 0 0 0 0 0 0 0 0 0 0 0
0 0 0 0 0 0 0 0 0 0 0 0 0 0 0 0 0 0 0 0 0 0 0 0 0 0 0 0 0 0 0 0 0 0 0 0 0 0 0 0 0 0 0 0
0 0 0 0 0 0 0 0 0 0 0 0 0 0 0 0 0 0 0 0 0 0 0 0 0 0 0 0 0 0 0 0 0 0 0 0 0 0 0 0 0 0 0 0
0 0 0 0 0 0 0 0 0 0 0 0 0 0 0 0 0 0 0 0 0 0 0 0 0 0 0 0 0 0 0 0 0 0 0 0 0 0 0 0 0 0 0 0
0 0 0 0 0 0 0 0 0 0 0 0 0 0 0 0 0 0 0 0 0 0 0 0 0 0 0 0 0 0 0 0 0 0 0 0 0 0 0 0 0 0 0 0
0 0 0 0 0 0 0 0 0 0 0 0 0 0 0 0 0 0 0 0 0 0 0 0 0 0 0 0 0 0 0 0 0 0 0 0 0 0 0 0 0 0 0 0
Height
5682 5683 5683 5683 5684 5686 5687 5688 5690 5692 5693 5696 5698 5700 5702 5704 5705 5707 5709 5711 5712 5714 5715 5716 5718 5719 5721 5722 5724 5726 5728 5730 5732 5734 5737 5739 5742 5744 5747 5749 5751 5752 5754 5757
5684 5684 5684 5683 5684 5685 5686 5687 5688 5689 5690 5692 5694 5696 5698 5699 5700 5701 5703 5704 5705 5706 5707 5708 5709 5711 5712 5714 5716 5718 5720 5721 5723 5725 5727 5730 5732 5735 5737 5739 5741 5743 5745 5747
5685 5685 5684 5684 5684 5684 5685 5685 5686 5687 5688 5688 5690 5693 5694 5694 5694 5696 5696 5697 5698 5699 5700 5701 5701 5703 5704 5706 5707 5709 5711 5713 5714 5716 5719 5720 5722 5725 5727 5729 5731 5732 5734 5737
5687 5686 5685 5685 5684 5684 5684 5684 5683 5684 5684 5686 5687 5687 5690 5689 5689 5690 5690 5691 5692 5692 5693 5693 5694 5695 5696 5698 5699 5701 5703 5704 5706 5708 5710 5712 5713 5715 5717 5719 5720 5722 5724 5727
5689 5687 5686 5685 5684 5683 5682 5682 5682 5681 5681 5683 5683 5683 5686 5685 5684 5685 5685 5685 5685 5685 5686 5686 5686 5687 5688 5690 5692 5693 5695 5696 5698 5699 5701 5703 5704 5706 5708 5709 5711 5713 5715 5717
5690 5688 5687 5685 5684 5683 5682 5681 5680 5680 5680 5681 5680 5680 5681 5681 5680 5680 5679 5679 5679 5679 5679 5679 5679 5680 5681 5683 5684 5685 5687 5688 5690 5691 5693 5694 5696 5697 5699 5701 5703 5704 5706 5708
5691 5689 5687 5685 5684 5683 5681 5681 5680 5678 5678 5678 5677 5676 5678 5676 5675 5675 5674 5674 5673 5673 5673 5673 5673 5673 5674 5676 5677 5678 5679 5680 5681 5683 5684 5686 5687 5688 5690 5693 5695 5696 5698 5700
5690 5689 5687 5685 5684 5682 5680 5679 5679 5677 5676 5676 5675 5674 5675 5673 5672 5670 5670 5669 5668 5668 5667 5667 5667 5667 5668 5669 5670 5671 5671 5672 5673 5674 5676 5677 5678 5680 5682 5685 5687 5689 5690 5692
5690 5689 5687 5684 5682 5681 5679 5678 5677 5675 5674 5673 5672 5672 5671 5670 5668 5667 5666 5665 5664 5663 5662 5662 5661 5661 5661 5662 5663 5663 5664 5664 5665 5666 5667 5669 5670 5672 5674 5676 5679 5681 5683 5685
5688 5687 5686 5683 5681 5680 5678 5676 5675 5673 5671 5670 5669 5668 5668 5666 5665 5664 5662 5660 5659 5658 5657 5657 5656 5655 5655 5655 5656 5656 5656 5657 5657 5658 5659 5661 5662 5664 5666 5669 5671 5673 5675 5677
5686 5685 5684 5682 5680 5678 5676 5675 5672 5670 5669 5667 5665 5667 5664 5662 5661 5660 5658 5657 5655 5654 5653 5652 5651 5650 5649 5649 5649 5649 5649 5650 5650 5651 5652 5653 5655 5656 5659 5661 5664 5666 5667 5669
5684 5682 5680 5679 5677 5675 5673 5672 5670 5668 5666 5663 5661 5665 5661 5659 5657 5656 5655 5653 5651 5650 5648 5647 5646 5645 5644 5643 5643 5643 5643 5643 5643 5643 5644 5645 5647 5649 5652 5654 5656 5658 5660 5661
5681 5679 5677 5676 5676 5673 5670 5668 5666 5664 5662 5660 5658 5661 5656 5655 5652 5651 5650 5648 5647 5645 5644 5642 5640 5639 5638 5637 5637 5637 5636 5636 5636 5637 5637 5639 5640 5642 5645 5647 5649 5650 5652 5653
5676 5675 5674 5672 5670 5667 5666 5664 5662 5659 5657 5655 5655 5654 5652 5649 5648 5646 5644 5643 5642 5640 5638 5637 5635 5634 5633 5632 5631 5631 5631 5631 5631 5631 5632 5633 5634 5636 5638 5640 5642 5643 5645 5646
5671 5670 5669 5667 5665 5662 5661 5659 5657 5654 5653 5651 5650 5648 5647 5644 5642 5641 5639 5638 5636 5635 5633 5631 5630 5629 5628 5627 5627 5626 5626 5625 5625 5625 5626 5627 5628 5630 5631 5633 5634 5636 5638 5639
5666 5664 5663 5662 5660 5657 5655 5654 5651 5649 5647 5645 5644 5643 5641 5638 5636 5635 5634 5632 5631 5629 5628 5626 5625 5624 5623 5622 5622 5621 5621 5620 5620 5620 5621 5621 5622 5623 5625 5627 5628 5629 5631 5632
5660 5658 5655 5654 5653 5651 5649 5649 5646 5644 5642 5639 5637 5637 5634 5633 5631 5629 5628 5626 5625 5624 5622 5621 5620 5619 5618 5617 5617 5616 5616 5616 5616 5616 5616 5617 5617 5618 5620 5621 5622 5623 5624 5625
5654 5651 5647 5646 5645 5643 5646 5642 5639 5636 5635 5633 5631 5630 5628 5626 5624 5623 5622 5621 5619 5618 5617 5616 5615 5614 5613 5612 5612 5611 5611 5611 5611 5611 5612 5612 5612 5613 5614 5615 5616 5617 5618 5619
5646 5643 5640 5638 5635 5634 5637 5634 5631 5629 5628 5626 5624 5622 5621 5619 5618 5617 5616 5615 5614 5613 5611 5610 5609 5608 5608 5607 5607 5606 5606 5606 5606 5606 5607 5607 5608 5608 5609 5610 5611 5611 5612 5613
5637 5634 5633 5630 5627 5626 5629 5627 5623 5621 5620 5619 5616 5614 5613 5612 5611 5611 5609 5608 5608 5606 5605 5604 5604 5603 5602 5601 5601 5601 5601 5601 5601 5601 5601 5601 5602 5602 5603 5604 5605 5605 5606 5607
5626 5624 5623 5620 5616 5617 5619 5616 5614 5613 5613 5609 5607 5606 5605 5604 5603 5603 5602 5601 5601 5600 5599 5598 5597 5596 5595 5595 5595 5594 5594 5594 5594 5594 5595 5595 5595 5596 5596 5597 5598 5598 5599 5600
5616 5614 5613 5610 5607 5610 5609 5606 5604 5603 5601 5599 5597 5596 5595 5595 5594 5594 5594 5593 5592 5592 5591 5591 5590 5590 5589 5588 5588 5588 5588 5587 5587 5588 5588 5588 5588 5589 5589 5590 5591 5591 5592 5592
5605 5604 5601 5600 5601 5599 5596 5594 5593 5591 5589 5588 5586 5586 5585 5585 5585 5585 5584 5584 5583 5583 5583 5582 5582 5582 5582 5581 5581 5581 5581 5580 5581 5581 5581 5581 5581 5581 5582 5582 5583 5583 5584 5584
5593 5591 5588 5587 5588 5587 5584 5582 5581 5579 5577 5575 5575 5575 5574 5575 5575 5575 5575 5575 5574 5574 5574 5574 5574 5574 5574 5573 5573 5574 5573 5573 5573 5573 5573 5573 5573 5574 5574 5575 5575 5575 5575 5576
5580 5577 5574 5573 5575 5573 5572 5570 5568 5565 5563 5562 5563 5563 5563 5563 5564 5565 5565 5565 5565 5564 5564 5564 5565 5565 5565 5565 5565 5565 5565 5565 5565 5565 5565 5565 5565 5565 5565 5566 5566 5566 5566 5566
5567 5563 5560 5560 5561 5556 5557 5556 5553 5551 5550 5550 5550 5550 5551 5551 5552 5552 5553 5554 5554 5554 5554 5554 5555 5556 5556 5556 5556 5556 5556 5556 5556 5556 5556 5556 5556 5556 5556 5557 5557 5557 5557 5557
Wind_Speed
4 4 4 6 9 10 12 15 17 19 22 24 26 27 29 31 32 33 34 35 37 37 38 39 39 38 38 38 39 40 40 40 41 41 42 42 42 42 42 43 44 43 43 43
6 5 5 6 8 10 11 13 14 17 19 21 24 25 27 29 30 31 31 32 33 35 36 37 37 37 37 38 38 39 40 40 41 41 41 42 43 43 43 43 44 44 43 43
7 5 6 6 7 10 12 13 14 16 17 19 21 22 24 26 27 28 28 29 31 32 33 34 35 36 37 37 38 39 39 39 40 40 40 41 41 41 41 42 42 43 43 44
9 8 6 6 7 9 11 12 14 15 17 18 20 20 21 23 24 25 27 28 28 30 33 34 35 36 37 37 37 37 38 38 39 39 39 39 39 40 40 40 40 41 42 43
9 8 7 7 7 8 9 10 12 13 15 16 18 19 19 20 22 23 25 26 28 29 30 32 34 35 35 35 35 36 36 37 37 38 38 38 37 38 38 39 38 39 40 41
9 9 9 9 9 8 9 10 11 12 13 14 15 17 17 18 19 21 22 24 25 27 28 30 31 33 33 34 34 35 36 36 36 36 36 36 36 37 37 38 38 37 37 39
10 10 10 9 9 9 9 9 10 11 12 12 13 14 14 15 16 18 19 21 23 24 25 27 28 29 31 32 33 33 34 35 35 35 35 35 36 36 36 37 37 36 36 37
11 10 10 10 10 10 9 9 10 11 12 12 12 13 12 12 14 16 18 19 21 21 22 23 25 26 28 29 31 32 33 34 34 34 35 35 35 35 36 36 35 35 35 35
12 12 11 11 11 11 10 10 11 12 12 12 13 13 12 13 14 15 16 18 19 19 20 21 22 24 26 27 28 30 30 31 32 33 34 34 35 35 35 35 33 33 33 33
14 14 13 13 12 12 12 11 11 12 14 14 13 14 14 14 14 15 16 17 17 18 18 19 21 23 24 26 27 28 29 29 30 32 32 33 33 34 34 34 33 33 32 32
15 15 15 14 13 13 13 13 14 14 15 15 14 14 14 14 14 14 15 15 16 17 18 19 20 22 23 24 25 26 27 29 30 31 32 32 33 33 33 34 34 34 34 34
17 17 16 14 14 15 15 15 16 16 16 17 16 15 15 15 15 15 16 17 17 18 19 20 20 21 22 23 23 24 25 26 27 28 29 30 31 31 31 32 32 33 33 33
18 17 17 17 17 17 17 18 18 18 18 18 17 16 16 16 16 17 18 18 19 19 19 20 20 20 20 21 22 22 23 23 25 25 26 26 27 28 28 29 29 30 30 31
20 19 19 19 19 19 19 19 20 21 20 19 17 16 17 18 18 19 19 19 20 20 20 20 20 20 19 19 20 20 21 21 21 22 22 23 24 25 26 27 28 28 29 29
23 22 22 21 21 21 21 21 22 22 21 20 18 18 18 19 20 20 20 20 20 20 20 20 20 19 19 18 18 19 19 19 20 20 21 22 23 24 24 25 25 26 27 27
25 25 25 24 23 24 23 23 23 22 21 21 20 19 19 20 21 21 21 21 20 20 20 20 20 19 19 18 19 19 19 19 19 20 20 20 21 22 22 23 24 24 25 26
27 28 28 28 26 26 26 24 23 23 23 22 21 20 21 21 21 22 21 21 21 20 21 21 20 20 20 20 20 19 19 19 19 19 19 19 19 20 21 21 22 23 24 25
30 30 31 30 29 29 27 25 25 25 25 24 23 22 22 22 23 23 23 22 21 21 21 21 21 21 20 20 20 19 19 18 18 18 18 18 18 19 19 21 22 22 23 23
33 33 34 33 33 32 29 27 26 27 27 26 26 25 25 24 24 24 24 23 22 22 22 22 22 22 21 21 21 20 19 19 19 19 19 19 19 20 21 21 22 23 23 23
35 35 36 36 36 35 32 29 28 29 29 28 28 28 27 26 26 25 26 25 24 23 23 22 22 22 22 22 22 22 22 21 21 21 22 22 22 23 23 23 23 23 23 23
37 38 38 38 39 37 35 33 32 32 31 30 30 30 30 29 28 28 28 28 27 27 26 25 24 24 24 23 23 23 23 23 23 23 23 24 25 25 25 25 25 25 25 25
40 41 40 41 41 38 35 35 34 34 34 34 33 33 32 31 30 30 30 30 29 29 28 27 27 26 25 25 24 23 24 25 24 24 24 25 25 25 25 26 26 25 26 26
42 42 43 43 41 40 38 38 36 37 37 37 37 36 35 34 32 31 31 31 31 30 29 29 28 27 27 27 26 24 24 25 25 25 25 26 26 26 26 27 27 27 27 28
44 44 45 45 42 41 40 39 38 38 39 39 39 39 38 37 35 34 34 33 32 32 31 30 30 28 28 28 27 27 27 27 27 27 27 28 28 28 28 28 29 29 30 30
46 46 46 46 44 43 42 41 40 41 41 42 41 41 40 38 37 37 36 35 34 33 33 32 31 30 30 30 28 28 28 28 28 28 28 29 30 30 29 29 30 31 31 31
46 46 47 46 44 46 45 43 43 44 44 44 44 42 41 40 38 37 37 36 35 34 33 33 33 32 32 32 31 30 30 30 30 30 30 30 31 32 32 31 31 32 33 33
Wind_Direction
347 309 265 252 246 247 245 242 243 244 245 243 242 242 243 245 246 247 248 250 250 251 251 252 252 252 253 253 254 254 254 253 253 253 253 253 252 253 254 255 255 255 254 254
343 328 302 279 258 255 253 250 249 250 251 251 248 246 248 249 250 251 251 251 252 252 252 252 252 252 253 253 254 254 254 254 254 254 254 253 253 253 254 255 254 255 254 255
344 336 320 300 280 271 265 260 259 259 258 256 254 251 252 254 255 254 253 253 254 255 254 254 254 253 253 253 254 254 254 254 253 253 254 254 254 254 254 254 253 253 253 253
351 343 332 315 298 287 277 270 267 265 262 261 261 258 256 258 258 255 254 254 256 257 256 256 255 254 254 253 253 253 253 253 253 254 255 255 254 253 253 253 252 253 253 254
347 344 336 326 313 301 294 285 275 270 266 263 262 264 261 260 260 259 257 256 257 259 260 258 256 254 254 253 253 253 253 253 254 255 255 254 254 253 254 253 253 254 254 254
346 342 335 327 319 312 304 296 287 279 273 269 267 268 267 265 264 262 260 260 260 260 261 260 258 255 254 253 254 255 254 254 254 254 254 254 255 255 255 254 254 255 256 256
343 339 336 334 328 318 309 302 295 289 283 281 277 276 275 271 267 265 263 263 263 263 262 260 259 257 255 254 254 255 255 255 254 254 254 255 256 255 254 254 255 257 258 257
335 333 332 330 329 325 315 305 298 293 290 286 282 282 282 276 273 271 268 266 266 265 265 262 259 258 257 256 255 255 256 255 255 255 255 254 254 254 254 254 256 258 257 257
328 326 326 326 324 320 316 310 301 296 294 292 290 288 284 282 280 277 275 271 269 267 267 263 262 261 258 256 255 255 255 256 255 255 254 254 254 253 253 254 256 258 258 259
321 319 318 316 315 313 310 308 305 302 300 298 297 293 289 284 280 279 278 275 272 271 271 270 267 266 262 260 259 259 258 257 257 256 254 254 255 254 254 254 255 257 259 261
317 315 313 311 309 307 307 306 303 302 303 301 300 300 295 287 283 281 280 278 276 275 274 274 273 270 267 263 262 262 261 260 259 259 257 256 254 253 253 254 255 256 258 260
314 310 308 307 305 303 301 301 299 299 298 296 297 300 295 288 284 281 279 280 281 280 279 277 277 274 271 268 266 265 263 262 261 260 259 258 256 255 255 255 255 256 257 258
313 308 304 303 302 300 298 297 295 295 295 294 295 298 293 289 287 283 281 280 282 283 282 280 279 277 273 270 267 266 265 264 261 260 258 256 254 253 254 254 255 254 255 257
307 305 303 302 300 297 296 294 293 292 292 291 292 292 291 291 287 284 283 282 283 283 282 281 281 278 275 273 269 267 266 265 263 261 258 255 253 252 253 255 256 257 257 258
301 301 300 299 297 295 294 292 291 292 292 291 291 288 287 286 285 283 285 287 285 282 283 282 280 278 275 274 272 268 268 268 266 263 260 257 255 254 255 256 256 256 257 256
298 298 297 296 296 293 293 293 292 291 292 291 289 287 285 282 283 284 284 285 285 282 281 283 281 277 275 274 272 270 269 269 267 264 260 258 256 255 255 255 256 256 256 257
296 296 296 295 295 293 292 292 289 289 290 290 290 287 282 282 284 283 282 283 283 282 280 280 280 278 275 274 272 271 270 269 268 265 260 259 257 256 256 258 259 260 260 259
293 293 293 294 294 293 296 292 289 288 287 288 288 286 282 281 280 279 280 281 282 282 280 279 279 278 275 274 272 270 270 268 267 266 262 259 258 258 258 259 260 262 263 262
289 289 290 291 292 292 293 292 289 287 285 285 284 283 282 281 279 278 277 278 278 279 279 278 278 277 274 272 270 269 269 268 267 266 265 262 260 260 261 262 263 264 264 262
287 286 286 287 288 290 293 290 287 286 285 283 281 281 281 280 278 276 274 275 276 277 278 278 277 275 274 272 269 268 269 269 268 266 266 266 264 263 263 263 263 264 264 263
284 285 285 286 286 288 291 289 286 285 285 283 281 279 279 279 278 275 272 272 273 273 275 275 276 274 273 273 271 267 267 268 267 266 268 268 266 264 264 263 262 263 263 263
281 283 284 284 285 288 288 287 283 282 280 279 279 278 277 277 276 275 272 270 270 270 271 272 272 272 273 273 272 268 266 267 266 267 267 267 266 265 264 263 263 264 264 265
279 281 281 282 283 284 285 284 281 279 278 277 276 276 276 276 275 274 273 270 268 268 269 270 270 271 271 272 271 268 267 267 266 266 267 267 266 265 264 264 264 265 266 267
279 279 280 280 280 281 281 280 278 278 276 276 275 275 275 274 274 274 273 271 270 268 269 269 268 269 270 271 269 268 268 268 267 266 266 266 267 267 266 265 265 266 267 266
279 279 279 279 279 279 278 278 276 274 273 273 273 273 274 274 273 272 272 270 269 268 267 268 267 267 268 269 269 268 268 269 269 268 268 267 267 266 266 266 265 267 268 268
280 280 279 278 278 277 276 275 274 272 271 271 271 272 272 272 272 271 270 269 268 267 267 267 266 265 265 266 268 267 267 268 269 269 269 269 269 267 265 266 267 269 270 271